Location: NCO
(38.4404°N, 77.1340°W)
Time: 19:39:15
(UTC-04:00)

ISS - Visible Passes

Search period start: 20 May 2018 00:00
Search period end: 30 May 2018 00:00
Orbit: 402 x 407 km, 51.6° (Epoch: 21 May)

Date Brightness Start Highest point End Pass type
(mag) Time Alt. Az. Time Alt. Az. Time Alt. Az.
20 May -0.3 00:16:29 10° NNE 00:16:29 10° NNE 00:16:32 10° NNE visible
20 May -0.6 03:28:03 10° NNW 03:30:02 15° NNE 03:32:00 10° ENE visible
20 May -3.7 05:03:40 10° NW 05:06:57 81° NE 05:10:12 10° SE visible
20 May -3.8 21:42:23 10° SW 21:45:35 56° SE 21:48:48 10° ENE visible
20 May -1.0 23:19:49 10° WNW 23:22:17 20° NNW 23:24:47 10° NNE visible
21 May -0.3 02:36:26 10° N 02:37:33 11° NNE 02:38:41 10° NE visible
21 May -2.5 04:11:36 10° NW 04:14:44 41° NNE 04:17:51 10° ESE visible
21 May -2.9 20:50:43 10° SSW 20:53:31 27° SE 20:56:20 10° ENE visible
21 May -1.8 22:27:00 10° W 22:29:57 30° NNW 22:32:53 10° NNE visible
22 May -1.4 03:19:40 10° NNW 03:22:26 25° NNE 03:25:12 10° E visible
22 May -3.3 04:55:56 10° WNW 04:58:58 36° SW 05:01:59 10° SSE visible
22 May -3.0 21:34:28 10° WSW 21:37:40 54° NW 21:40:54 10° NE visible
22 May -0.4 23:13:12 10° NW 23:14:45 13° NNW 23:16:16 10° N visible
23 May -0.8 02:27:49 10° NNW 02:30:02 17° NNE 02:32:16 10° ENE visible
23 May -4.0 04:03:35 10° NW 04:06:51 78° SW 04:10:06 10° SE visible
23 May -0.7 22:20:00 10° WNW 22:22:16 17° NNW 22:24:32 10° NNE visible
24 May -0.4 01:36:05 10° N 01:37:34 12° NNE 01:37:41 12° NNE visible
24 May -1.4 21:27:03 10° W 21:29:51 25° NNW 21:32:39 10° NNE visible
25 May -0.4 22:13:28 10° NW 22:14:40 12° NNW 22:15:52 10° N visible
26 May -0.4 01:27:29 10° NNW 01:27:35 10° NNW 01:27:35 10° NNW visible
26 May -0.7 21:20:06 10° WNW 21:22:08 15° NNW 21:24:10 10° NNE visible
27 May -0.5 00:35:40 10° NNW 00:36:46 13° N 00:36:46 13° N visible
27 May -0.5 23:44:06 10° N 23:44:52 11° NNE 23:45:39 10° NNE visible
28 May -0.5 21:13:42 10° NNW 21:14:29 11° NNW 21:15:15 10° N visible
29 May -0.6 00:27:04 10° NNW 00:27:57 15° NNW 00:27:57 15° NNW visible
29 May -1.0 23:35:09 10° NNW 23:37:12 15° NNE 23:37:18 15° NNE visible
